Bullock, NC

10:13 PM EST on February 05, 2016 (GMT -0500)
Henderson-Oxford

Weather History for KHNZ - March, 2012

Change the Weather History Date:

Monday, March 19, 2012

  Actual Average (KTDF) Record (KTDF)
Temperature  
Mean Temperature 63 °F -  
Max Temperature 75 °F 60 °F 77 °F (1977)
Min Temperature 51 °F 35 °F 12 °F (1967)
Degree Days  
Heating Degree Days 2    
Growing Degree Days 13 (Base 50)    
Moisture  
Dew Point 56 °F    
Average Humidity 79    
Maximum Humidity 100    
Minimum Humidity 47    
Precipitation  
Precipitation 0.07 in - - ()
Sea Level Pressure  
Sea Level Pressure 30.19 in    
Wind  
Wind Speed 3 mph (SW)    
Max Wind Speed 9 mph    
Max Gust Speed -    
Visibility 7 miles    
Events Fog , Rain    
Averages and records for this station are not official NWS values.
T = Trace of Precipitation, MM = Missing Value Source: NWS Daily Summary

Daily Weather History Graph

Daily Weather History Graph

Search for Another Location

Airport or City:

Trip Planner

Search our weather history database for the weather conditions in past years. The results will help you decide how hot, cold, wet, or windy it might be!

Date:

Astronomy

Mar. 19, 2012 Rise Set
Actual Time 7:18 AM EDT 7:25 PM EDT
Civil Twilight 6:52 AM EDT 7:51 PM EDT
Nautical Twilight 6:22 AM EDT 8:21 PM EDT
Astronomical Twilight 5:52 AM EDT 8:51 PM EDT
Moon 5:25 AM EDT (3/19) 4:55 PM EDT (3/19)
Length of Visible Light 12h 58m
Length of Day
12h 06m
Waning Crescent, 8% of the Moon is Illuminated
Mar 19
Waning Crescent
Mar 22
New
Mar 30
First Quarter
Apr 6
Full
Apr 13
Last Quarter

Hourly Weather History & Observations

Time (EDT) Temp. Dew Point Humidity Pressure Visibility Wind Dir Wind Speed Gust Speed Precip Events Conditions
12:15 AM 60.8 °F 55.4 °F 82% 30.22 in 10.0 mi SSE 4.6 mph - N/A   Clear
12:35 AM 60.8 °F 55.4 °F 82% 30.22 in 10.0 mi South 3.5 mph - N/A   Clear
12:55 AM 59.0 °F 55.4 °F 88% 30.22 in 10.0 mi Calm Calm - N/A   Clear
1:15 AM 59.0 °F 55.4 °F 88% 30.22 in 10.0 mi Calm Calm - N/A   Clear
1:35 AM 55.4 °F 53.6 °F 94% 30.22 in 7.0 mi SW 3.5 mph - N/A   Clear
1:55 AM 57.2 °F 55.4 °F 94% 30.22 in 7.0 mi WSW 3.5 mph - N/A   Clear
2:15 AM 59.0 °F 55.4 °F 88% 30.22 in 7.0 mi WSW 3.5 mph - N/A   Clear
2:35 AM 57.2 °F 55.4 °F 94% 30.21 in 7.0 mi WSW 4.6 mph - N/A   Clear
2:55 AM 55.4 °F 53.6 °F 94% 30.21 in 4.0 mi WSW 3.5 mph - N/A   Clear
3:15 AM 55.4 °F 53.6 °F 94% 30.21 in 3.0 mi SW 4.6 mph - N/A   Clear
3:35 AM 57.2 °F 55.4 °F 94% 30.20 in 3.0 mi WSW 4.6 mph - N/A   Clear
3:55 AM 55.4 °F 55.4 °F 100% 30.20 in 4.0 mi WSW 3.5 mph - N/A   Clear
4:15 AM 55.4 °F 53.6 °F 94% 30.20 in 0.8 mi SW 3.5 mph - N/A   Mostly Cloudy
4:55 AM 55.4 °F 55.4 °F 100% 30.19 in 4.0 mi Calm Calm - N/A   Clear
5:15 AM 55.4 °F 55.4 °F 100% 30.20 in 4.0 mi West 3.5 mph - N/A   Clear
5:55 AM 53.6 °F 53.6 °F 100% 30.19 in 0.8 mi Calm Calm - N/A   Mist
6:15 AM 53.6 °F 51.8 °F 94% 30.20 in 2.0 mi Calm Calm - N/A   Clear
6:35 AM 53.6 °F 51.8 °F 94% 30.21 in 0.5 mi Calm Calm - N/A Fog Fog
6:55 AM 51.8 °F 51.8 °F 100% 30.22 in 0.5 mi North 5.8 mph - N/A Fog Fog
7:15 AM 53.6 °F 53.6 °F 100% 30.23 in 4.0 mi NNW 3.5 mph - N/A   Mostly Cloudy
7:35 AM 55.4 °F 53.6 °F 94% 30.22 in 2.5 mi Calm Calm - N/A   Scattered Clouds
7:55 AM 53.6 °F 53.6 °F 100% 30.21 in 3.0 mi Calm Calm - N/A   Clear
8:15 AM 57.2 °F 55.4 °F 94% 30.22 in 3.0 mi Calm Calm - N/A   Mostly Cloudy
8:35 AM 59.0 °F 57.2 °F 94% 30.22 in 4.0 mi WSW 3.5 mph - N/A   Scattered Clouds
8:55 AM 59.0 °F 57.2 °F 94% 30.22 in 4.0 mi SW 3.5 mph - N/A   Mostly Cloudy
9:15 AM 60.8 °F 59.0 °F 94% 30.23 in 5.0 mi West 3.5 mph - N/A   Overcast
9:35 AM 60.8 °F 59.0 °F 94% 30.24 in 7.0 mi Calm Calm - N/A   Overcast
9:55 AM 60.8 °F 59.0 °F 94% 30.26 in 5.0 mi NNW 5.8 mph - N/A Rain Light Rain
10:15 AM 60.8 °F 59.0 °F 94% 30.27 in 4.0 mi NW 4.6 mph - 0.02 in Rain Light Rain
10:35 AM 60.8 °F 59.0 °F 94% 30.27 in 3.0 mi WNW 3.5 mph - 0.06 in Rain Rain
11:15 AM 60.8 °F 59.0 °F 94% 30.25 in 2.5 mi West 3.5 mph - 0.01 in Rain Light Rain
11:55 AM 62.6 °F 60.8 °F 94% 30.23 in 4.0 mi WSW 8.1 mph - 0.01 in   Mostly Cloudy
12:15 PM 64.4 °F 60.8 °F 88% 30.22 in 7.0 mi SW 8.1 mph - N/A   Scattered Clouds
12:35 PM 66.2 °F 60.8 °F 83% 30.20 in 10.0 mi SW 9.2 mph - N/A   Scattered Clouds
12:55 PM 66.2 °F 59.0 °F 78% 30.21 in 10.0 mi SW 5.8 mph - N/A   Clear
1:15 PM 69.8 °F 60.8 °F 73% 30.19 in 10.0 mi SSW 8.1 mph - N/A   Clear
1:35 PM 69.8 °F 59.0 °F 68% 30.19 in 10.0 mi SW 5.8 mph - N/A   Clear
2:15 PM 71.6 °F 55.4 °F 57% 30.17 in 10.0 mi Calm Calm - N/A   Clear
2:55 PM 73.4 °F 55.4 °F 53% 30.16 in 10.0 mi WSW 3.5 mph - N/A   Clear
3:15 PM 73.4 °F 55.4 °F 53% 30.15 in 10.0 mi SW 4.6 mph - N/A   Clear
3:35 PM 73.4 °F 53.6 °F 50% 30.14 in 10.0 mi WSW 5.8 mph - N/A   Clear
3:55 PM 73.4 °F 53.6 °F 50% 30.14 in 10.0 mi WSW 4.6 mph - N/A   Clear
4:15 PM 73.4 °F 53.6 °F 50% 30.14 in 10.0 mi SSW 4.6 mph - N/A   Clear
4:35 PM 73.4 °F 53.6 °F 50% 30.13 in 10.0 mi SSE 3.5 mph - N/A   Scattered Clouds
4:55 PM 75.2 °F 53.6 °F 47% 30.13 in 10.0 mi South 3.5 mph - N/A   Scattered Clouds
5:15 PM 73.4 °F 53.6 °F 50% 30.13 in 10.0 mi Calm Calm - N/A   Clear
5:35 PM 73.4 °F 53.6 °F 50% 30.13 in 10.0 mi SSW 3.5 mph - N/A   Clear
5:55 PM 73.4 °F 53.6 °F 50% 30.13 in 10.0 mi SW 4.6 mph - N/A   Clear
6:15 PM 73.4 °F 53.6 °F 50% 30.12 in 10.0 mi Calm Calm - N/A   Clear
6:55 PM 73.4 °F 53.6 °F 50% 30.13 in 10.0 mi SSE 4.6 mph - N/A   Clear
7:15 PM 71.6 °F 53.6 °F 53% 30.13 in 10.0 mi SSE 4.6 mph - N/A   Clear
7:35 PM 71.6 °F 53.6 °F 53% 30.13 in 10.0 mi Calm Calm - N/A   Clear
7:55 PM 68.0 °F 55.4 °F 64% 30.13 in 10.0 mi Calm Calm - N/A   Clear
8:15 PM 68.0 °F 55.4 °F 64% 30.14 in 10.0 mi SSE 3.5 mph - N/A   Clear
8:35 PM 68.0 °F 53.6 °F 60% 30.15 in 10.0 mi South 3.5 mph - N/A   Clear
8:55 PM 66.2 °F 55.4 °F 68% 30.16 in 10.0 mi SSE 4.6 mph - N/A   Clear
9:15 PM 66.2 °F 55.4 °F 68% 30.16 in 10.0 mi South 4.6 mph - N/A   Clear
9:35 PM 64.4 °F 55.4 °F 73% 30.16 in 10.0 mi South 5.8 mph - N/A   Clear
9:55 PM 64.4 °F 55.4 °F 73% 30.16 in 10.0 mi South 4.6 mph - N/A   Clear
10:15 PM 62.6 °F 55.4 °F 77% 30.17 in 10.0 mi South 4.6 mph - N/A   Clear
10:35 PM 62.6 °F 55.4 °F 77% 30.17 in 10.0 mi South 4.6 mph - N/A   Clear
10:55 PM 62.6 °F 55.4 °F 77% 30.17 in 10.0 mi South 4.6 mph - N/A   Scattered Clouds
11:15 PM 62.6 °F 55.4 °F 77% 30.17 in 10.0 mi SSE 3.5 mph - N/A   Scattered Clouds
11:35 PM 62.6 °F 55.4 °F 77% 30.18 in 10.0 mi South 3.5 mph - N/A   Mostly Cloudy
11:55 PM 62.6 °F 55.4 °F 77% 30.17 in 10.0 mi SW 4.6 mph - N/A   Overcast